[[{"header":{"parameterUnit":"m.s-1","parameterCategory":1,"la1":30.2991,"la2":30.254,"lo1":-89.0895,"lo2":-89.0444,"dy":0.0017,"dx":0.0017,"nx":28,"ny":28,"refTime":"2024-05-26T03:00:00:Z","depth":0,"parameterNumber":2,"parameterNumberName":"U-component_of_WINDS"},"data":[0,0,0,0,0,0,0,0,0,0,0,0,0,0,0,0,0,0,0,0,0,0,0,0,0,0,0,0,0,0,0,0,0,0,0,0,0,0,0,0,0,0,0,0,0,0,0,0,0,0,0,0,0,0,0,0,0,0,1.6501,1.6501,0,1.6435,1.6435,1.6434,1.6361,1.636,1.6359,1.6357,1.629,1.629,1.6289,0,0,0,0,0,0,0,0,0,0,0,0,0,1.6563,1.6562,1.6501,1.6501,1.65,1.6436,1.6435,1.6434,1.6361,1.636,1.6358,1.6357,1.6291,1.629,1.6289,0,0,0,0,0,0,0,0,0,0,0,0,0,1.6521,1.6562,1.6502,1.6456,1.6451,1.6436,1.6435,1.6434,1.6361,1.636,1.6358,1.6356,1.6291,1.629,1.6289,1.6313,0,0,1.6285,1.6284,0,0,0,0,0,0,0,0,1.6523,1.6518,1.6463,1.6459,1.6453,1.6405,1.6432,1.6393,1.6362,1.6395,1.6357,1.6356,1.633,1.6325,1.6316,1.631,1.6307,1.6285,1.6284,1.6284,1.6283,0,0,0,0,0,0,0,1.6526,1.6521,1.6475,1.6462,1.6456,1.6438,1.643,1.6424,1.6372,1.6392,1.6387,1.638,1.6327,1.6318,1.6314,1.6306,1.6285,1.6284,1.6283,1.6283,1.6315,1.6316,0,0,0,0,0,0,1.6536,1.6524,1.6477,1.6473,1.6485,1.6438,1.6429,1.6422,1.6372,1.6363,1.6381,1.6377,1.6321,1.6316,1.6312,1.6335,1.6284,1.6282,1.6282,1.6313,1.6315,1.6317,0,0,0,0,0,0,1.6538,1.6533,1.648,1.6497,1.6489,1.6439,1.6431,1.6421,1.6412,1.6364,1.6354,1.6382,1.6319,1.6313,1.6313,1.6332,1.6282,1.6281,1.6311,1.6314,1.6316,1.6385,0,0,0,0,0,0,1.654,1.6534,1.6543,1.6498,1.6488,1.6483,1.6432,1.6421,1.641,1.6404,1.6362,1.6353,1.6317,1.6315,1.6312,1.633,1.628,1.6309,1.6313,1.6315,1.6381,1.6389,1.6397,0,0,0,0,0,1.6542,1.6566,1.6544,1.6539,1.6499,1.6484,1.6479,1.6437,1.6412,1.6421,1.6389,1.6355,1.6331,1.6316,1.6311,1.6329,1.6308,1.6312,1.6315,1.6377,1.6388,1.6397,0,0,0,0,0,0,1.6615,1.6559,1.6534,1.6544,1.6519,1.6472,1.6481,1.645,1.6432,1.6427,1.6376,1.6367,1.6372,1.6351,1.6335,1.6349,1.6314,1.6317,1.6363,1.6373,1.638,1.6385,1.6279,0,0,0,0,0,1.6632,1.6625,1.6576,1.6589,1.6578,1.6532,1.6524,1.6494,1.6467,1.6456,1.6425,1.64,1.6386,1.6378,1.6364,1.6378,1.6366,1.6387,1.6396,1.6402,1.6405,1.6408,1.6417,1.6328,1.6328,1.6328,0,0,1.6667,1.6635,1.6634,1.6603,1.658,1.6574,1.6524,1.652,1.6514,1.6455,1.6452,1.6429,1.6397,1.6403,1.6405,1.6386,1.6427,1.6407,1.6413,1.6411,1.6413,1.6421,1.6429,1.6331,1.633,1.633,0,0,1.6727,1.6703,1.671,1.6689,1.6655,1.6624,1.6626,1.6583,1.6565,1.6561,1.6517,1.6509,1.6488,1.6466,1.6453,1.6503,1.647,1.65,1.6542,1.6546,1.6552,1.6558,1.6574,1.6581,1.6503,1.6503,1.6503,0,1.6775,1.6763,1.6718,1.6716,1.6702,1.6649,1.6655,1.6637,1.66,1.6592,1.6572,1.6542,1.6517,1.6517,1.6529,1.652,1.6519,1.6504,1.6555,1.6561,1.6565,1.658,1.6587,1.6507,1.6507,1.6506,1.6506,0,1.6822,1.6815,1.6825,1.679,1.6778,1.678,1.6735,1.6728,1.6699,1.667,1.6666,1.6634,1.6611,1.6609,1.6581,1.6604,1.6593,1.6565,1.6528,1.6578,1.6591,1.6597,1.6512,1.6511,1.651,1.6509,0,0,1.6926,1.6866,1.687,1.6852,1.6811,1.6804,1.6803,1.678,1.6775,1.6751,1.6748,1.6731,1.6704,1.6688,1.6657,1.6661,1.67,1.6632,1.663,1.6644,1.6721,1.6742,1.6749,1.6678,1.6679,1.668,1.6723,0,1.6977,1.6972,1.6931,1.6937,1.6929,1.6878,1.6877,1.6851,1.6824,1.6812,1.6782,1.6769,1.6736,1.6726,1.6728,1.6695,1.6715,1.6692,1.6674,1.6673,1.6681,1.6756,1.6778,1.682,1.6728,1.6729,1.673,0,1.7036,1.7015,1.7021,1.6977,1.6972,1.6972,1.6947,1.6937,1.6906,1.6886,1.6868,1.6833,1.6828,1.6794,1.6786,1.6771,1.6761,1.6744,1.6745,1.674,1.6704,1.6752,1.6833,1.6838,1.6738,1.6737,1.6736,0,1.7108,1.7082,1.7081,1.7068,1.7019,1.7019,1.6999,1.6966,1.6954,1.6932,1.6924,1.6902,1.6889,1.6873,1.6832,1.6812,1.6827,1.6791,1.6809,1.681,1.6813,1.6813,1.6892,1.681,1.681,1.681,1.681,0,1.7168,1.7173,1.7112,1.7112,1.7115,1.7068,1.7073,1.7047,1.7019,1.7011,1.6967,1.6961,1.6908,1.6896,1.6864,1.686,1.6856,1.6838,1.6829,1.6841,1.6843,1.6833,1.6828,1.6812,1.6811,1.6811,1.6811,0,1.7249,1.7209,1.7204,1.7157,1.7146,1.715,1.711,1.7107,1.7077,1.7068,1.7063,1.7016,1.6999,1.6957,1.6929,1.6908,1.6912,1.6897,1.6922,1.6916,1.6936,1.6934,1.7009,1.7016,1.6932,1.6933,1.6934,0,1.7289,1.7291,1.7245,1.7236,1.7218,1.7206,1.7193,1.7147,1.7135,1.71,1.7101,1.708,1.7061,1.7037,1.6999,1.6977,1.696,1.6988,1.6957,1.6968,1.6958,1.6958,1.6957,1.6995,1.6996,1.6997,1.6998,0,1.7364,1.7343,1.7327,1.7304,1.729,1.7269,1.7246,1.7242,1.719,1.7179,1.7161,1.7147,1.7118,1.7098,1.707,1.7048,1.7013,1.7008,1.701,1.7022,1.7035,1.7026,1.6939,1.7006,1.7005,1.7005,1.7004,1.7004,1.7423,1.7422,1.7389,1.7372,1.735,1.7329,1.7323,1.7292,1.7277,1.7249,1.7223,1.7208,1.7175,1.7134,1.7114,1.71,1.7083,1.7088,1.7088,1.7089,1.7094,1.7039,1.7096,1.7095,1.7095,1.7095,1.7095,0,1.7494,1.747,1.7455,1.7423,1.741,1.738,1.7352,1.7342,1.7329,1.7302,1.7284,1.7263,1.7242,1.7203,1.7179,1.7176,1.7159,1.7171,1.717,1.7165,1.7112,1.7111,1.7184,1.7184,1.7184,1.7184,1.7184,1.7184,1.7529,1.7525,1.7501,1.7485,1.746,1.7445,1.7431,1.7411,1.7389,1.7367,1.735,1.7325,1.7292,1.7266,1.7245,1.7234,1.7226,1.7243,1.7226,1.7177,1.7169,1.7161,1.7159,1.7242,1.7242,1.728,1.728,1.7281]},{"header":{"parameterUnit":"m.s-1","parameterCategory":1,"la1":30.2991,"la2":30.254,"lo1":-89.0895,"lo2":-89.0444,"dy":0.0017,"dx":0.0017,"nx":28,"ny":28,"refTime":"2024-05-26T03:00:00:Z","depth":0,"parameterNumber":3,"parameterNumberName":"V-component_of_WINDS"},"data":[0,0,0,0,0,0,0,0,0,0,0,0,0,0,0,0,0,0,0,0,0,0,0,0,0,0,0,0,0,0,0,0,0,0,0,0,0,0,0,0,0,0,0,0,0,0,0,0,0,0,0,0,0,0,0,0,0,0,6.7926,6.7927,0,6.8099,6.8101,6.8103,6.8091,6.8088,6.8085,6.8083,6.8261,6.8268,6.8275,0,0,0,0,0,0,0,0,0,0,0,0,0,6.7584,6.759,6.7925,6.7928,6.793,6.8099,6.8101,6.8103,6.8091,6.8088,6.8085,6.8082,6.8258,6.8267,6.8275,0,0,0,0,0,0,0,0,0,0,0,0,0,6.7742,6.7592,6.7925,6.7944,6.7947,6.8098,6.8101,6.8104,6.8092,6.8088,6.8084,6.808,6.8256,6.8266,6.8276,6.842,0,0,6.8309,6.8314,0,0,0,0,0,0,0,0,6.7733,6.7755,6.7939,6.7943,6.7947,6.8069,6.8046,6.821,6.8093,6.8037,6.8083,6.8078,6.82,6.8215,6.8256,6.8428,6.8436,6.831,6.8317,6.8321,6.8324,0,0,0,0,0,0,0,6.7722,6.7747,6.7994,6.7942,6.7947,6.7944,6.7962,6.8077,6.8138,6.8041,6.8041,6.8062,6.8201,6.8246,6.826,6.8438,6.831,6.8319,6.8326,6.833,6.8737,6.8741,0,0,0,0,0,0,6.7707,6.7738,6.7989,6.7999,6.7828,6.7953,6.7973,6.8034,6.8137,6.8149,6.8065,6.806,6.8229,6.8248,6.8266,6.8441,6.8321,6.8331,6.8337,6.8733,6.8738,6.8743,0,0,0,0,0,0,6.77,6.7729,6.7982,6.7869,6.7901,6.7963,6.8031,6.8039,6.8084,6.8154,6.8165,6.8099,6.8227,6.8251,6.8382,6.8447,6.8336,6.8346,6.8728,6.8734,6.8741,6.8792,0,0,0,0,0,0,6.769,6.7727,6.7782,6.787,6.7907,6.8094,6.8035,6.8045,6.8102,6.8098,6.8189,6.8201,6.8226,6.8366,6.8393,6.846,6.8354,6.8722,6.8731,6.8738,6.8785,6.88,6.8812,0,0,0,0,0,6.7678,6.779,6.7785,6.7815,6.7977,6.8098,6.8119,6.8146,6.8107,6.8163,6.8209,6.8198,6.8436,6.8379,6.8409,6.8481,6.8718,6.8728,6.8738,6.8779,6.8797,6.8812,0,0,0,0,0,0,6.7708,6.7801,6.7797,6.7941,6.8012,6.8096,6.8167,6.8164,6.8247,6.824,6.827,6.8291,6.8422,6.8464,6.84,6.8625,6.8572,6.8588,6.8593,6.8611,6.8624,6.8611,6.8363,0,0,0,0,0,6.7731,6.7822,6.7899,6.8018,6.8054,6.8104,6.8158,6.8173,6.8247,6.8277,6.8332,6.8405,6.8496,6.8556,6.8643,6.8791,6.8811,6.8855,6.8869,6.8879,6.8893,6.8975,6.8995,6.8775,6.8775,6.8775,0,0,6.778,6.7843,6.7898,6.8026,6.8082,6.8175,6.813,6.823,6.83,6.8292,6.8419,6.8462,6.8545,6.8685,6.8749,6.8724,6.8958,6.8892,6.89,6.8908,6.8987,6.9008,6.9026,6.8782,6.8781,6.878,0,0,6.7918,6.7974,6.8079,6.8137,6.8223,6.8256,6.8281,6.8366,6.8395,6.8522,6.8519,6.8602,6.8758,6.8818,6.8868,6.9028,6.9021,6.9056,6.9128,6.9207,6.9224,6.924,6.9297,6.9317,6.9069,6.907,6.907,0,6.7968,6.8108,6.8134,6.8236,6.8292,6.8289,6.8397,6.8451,6.8562,6.8601,6.8571,6.8768,6.8824,6.8977,6.9016,6.9057,6.9088,6.9046,6.922,6.9235,6.925,6.9305,6.9327,6.9073,6.9073,6.9073,6.9072,0,6.8166,6.8263,6.8338,6.8445,6.8509,6.8613,6.8655,6.8718,6.8727,6.8763,6.8893,6.896,6.9061,6.9098,6.9108,6.9254,6.9236,6.9213,6.916,6.9274,6.9327,6.9348,6.9079,6.9077,6.9076,6.9075,0,0,6.8327,6.8447,6.8474,6.8522,6.8617,6.8693,6.8796,6.8896,6.8949,6.9025,6.9113,6.9245,6.9225,6.9282,6.9299,6.9368,6.9491,6.9337,6.9339,6.9363,6.9656,6.9673,6.9697,6.9486,6.9491,6.9494,6.9649,0,6.8474,6.8658,6.8685,6.8847,6.8937,6.8936,6.9026,6.9094,6.9131,6.9213,6.9253,6.9347,6.9312,6.9347,6.9416,6.9461,6.955,6.945,6.9569,6.9573,6.9548,6.9724,6.9742,6.9885,6.9669,6.9673,6.9675,0,6.8671,6.8752,6.8923,6.9006,6.9044,6.9125,6.9218,6.9297,6.9374,6.9395,6.946,6.9468,6.9576,6.9518,6.9667,6.9599,6.9649,6.9678,6.9685,6.9697,6.9631,6.9741,6.9932,6.9953,6.9708,6.9705,6.9703,0,6.8772,6.8924,6.9046,6.9087,6.9187,6.9243,6.9287,6.9361,6.9419,6.95,6.9538,6.9631,6.9682,6.9753,6.9786,6.9741,6.9934,6.9878,6.9955,6.9954,6.9996,6.9993,7.0197,7.0028,7.0027,7.0027,7.0026,0,6.8933,6.9038,6.9093,6.9168,6.9285,6.9315,6.943,6.9472,6.9538,6.9621,6.9626,6.9704,6.9743,6.9827,6.9854,6.9973,6.9996,7.0017,7.0023,7.0017,7.0014,7.005,7.0041,7.0032,7.0031,7.003,7.0029,0,6.9066,6.9107,6.924,6.9323,6.9346,6.9429,6.95,6.9573,6.9609,6.9714,6.9741,6.9797,6.9897,6.9937,7.0058,7.0076,7.0214,7.0212,7.0188,7.019,7.0264,7.0257,7.0499,7.0533,7.034,7.0342,7.0344,0,6.9167,6.9247,6.9339,6.9395,6.944,6.9531,6.959,6.9622,6.9683,6.9777,6.9839,6.9938,7.002,7.0179,7.0231,7.0324,7.0324,7.0403,7.0338,7.033,7.0326,7.0321,7.0329,7.0415,7.0417,7.0418,7.042,0,6.9341,6.9357,6.9442,6.9534,6.9604,6.9679,6.9751,6.9797,6.984,6.9908,7.001,7.0073,7.0197,7.0296,7.0392,7.0438,7.0437,7.0439,7.0462,7.0457,7.044,7.0451,7.0221,7.0434,7.0432,7.0431,7.0431,7.043,6.9462,6.9533,6.9608,6.9703,6.976,6.9828,6.99,6.9945,7.003,7.0134,7.0148,7.0257,7.0332,7.0461,7.0511,7.0597,7.0576,7.0609,7.0617,7.0625,7.063,7.0426,7.0614,7.0614,7.0613,7.0613,7.0613,0,6.9637,6.9685,6.9771,6.9872,6.9946,6.9938,7.0017,7.008,7.0176,7.0246,7.0326,7.0443,7.0538,7.0598,7.0694,7.0752,7.0754,7.0776,7.0772,7.0783,7.0643,7.0614,7.0773,7.0773,7.0773,7.0773,7.0773,7.0773,6.9736,6.9857,6.9882,7.0031,7.0079,7.0186,7.0232,7.0294,7.035,7.0481,7.056,7.0598,7.0664,7.0766,7.0853,7.0868,7.0904,7.0928,7.0942,7.0809,7.0793,7.0777,7.075,7.0935,7.0935,7.1075,7.1076,7.1077]}]]